Flag for Brazil Weather past 2 weeks in Manaus, Amazonas, Brazil

Now
84 °F

Scattered clouds.


Feels Like: 90 °F
Forecast: 77 / 94 °F
Wind: No wind

Location: Manaus Aeroporto

Current Time: Oct 2, 2014 at 2:13:43 PM

Latest Report: Oct 2, 2014 at 1:00 PM


Visibility: N/A

Pressure: 29.89 "Hg

Humidity: 66%

Dew point: 72 °F

Location of ManausLocation

Historic Weather in Manaus — Graph

°F

Manaus temperature yesterday

Maximum temperature yesterday: 93 °F (at 12:00 PM)
Minimum temperature yesterday: 79 °F (at 3:00 AM)
Average temperature yesterday: 86 °F

Past Weeks' High & Low Weather Summary

 TemperatureHumidityPressure
High97 °F (Sep 22, 2:00 PM)94% (Sep 25, 6:00 AM)29.98 "Hg (Sep 25, 6:00 AM)
Low73 °F (Sep 18, 4:00 AM)21% (Oct 2, 10:00 AM)29.77 "Hg (Sep 19, 4:00 PM)
Average85 °F64%29.87 "Hg
* Reported Sep 17 1:00 PM — Oct 2 1:00 PM, Manaus, Weather by CustomWeather, © 2014

Note: Actual official high and low records may vary slightly from our data, if they occured in-between our weather recording intervals... More about our weather records

Advertising

Manaus weather history for previous 24 hours

 ConditionsComfort  
Time TempWeatherWind HumidityBarometerVisibility
1:00 PM
Oct 2
84 °FScattered clouds.No wind66%29.89 "HgN/A
12:00 PM77 °FBroken clouds.5 mph89%29.95 "HgN/A
11:00 AM75 °FThunderstorms. Scattered clouds.3 mph94%29.98 "HgN/A
10:00 AM79 °FThunderstorms. Broken clouds.12 mph21%29.98 "HgN/A
9:00 AM79 °FScattered showers. Partly sunny.5 mph84%N/AN/A
8:00 AM77 °FThunderstorms. Partly sunny.6 mph79%29.95 "HgN/A
7:00 AM75 °FScattered showers. Scattered clouds.5 mph83%N/AN/A
6:00 AM73 °FThunderstorms. Partly sunny.15 mph89%29.86 "HgN/A
5:00 AM84 °FThundershowers. Passing clouds.3 mph66%29.86 "HgN/A
4:00 AM84 °FClear.6 mph66%29.86 "Hg10 mi
3:00 AM84 °FClear.5 mph66%29.86 "Hg10 mi
2:00 AM84 °FClear.3 mph66%29.86 "Hg10 mi
1:00 AM84 °FClear.2 mph70%29.86 "Hg10 mi
12:00 AM84 °FClear.2 mph66%29.86 "Hg10 mi
11:00 PM
Oct 1
86 °FClear.5 mph62%29.86 "Hg10 mi
10:00 PM86 °FClear.3 mph66%29.86 "Hg10 mi
9:00 PM86 °FClear.5 mph66%29.83 "Hg10 mi
8:00 PM86 °FClear.2 mph70%29.83 "Hg10 mi
7:00 PM88 °FPassing clouds.2 mph62%29.80 "HgN/A
6:00 PM90 °FPassing clouds.2 mph59%29.80 "HgN/A
5:00 PM91 °FPassing clouds.6 mph52%29.80 "HgN/A
4:00 PM93 °FPassing clouds.6 mph49%29.80 "HgN/A
3:00 PM93 °FPassing clouds.6 mph49%29.80 "HgN/A
2:00 PM93 °FPassing clouds.7 mph49%29.86 "HgN/A
Weather by CustomWeather, © 2014

See weather overviewHow to use our weather pages